Date String (YYYY-MM-DD hh:mm:ss) UTC,Instrument flags,Ambient pressure (hPa),Sample flow (lpm),Bypass flow (lpm),Sample temperature (°C),Ambient temperature (°C),ASC tube jacket temperature (°C),LED temperature (°C),Box temperature (°C),Sample RH (%),Span deviation,Mass concentration (μg/m³),Mass concentration (μg/m³),Mass concentration (μg/m³)
DateTimeUTC,F1_M11,P_M11,Q1_M11,Q2_M11,T1_M11,T2_M11,T3_M11,T4_M11,T5_M11,U1_M11,ZSPAN_M11,X0_M11,X2_M11,X1_M11
2021-12-30 16:00:00,,0808.9,4.98,0.00,22.1,21.6,00.0,31.0,23.8,08.0,0000.0,0007.32,0000.81,0000.19
2021-12-30 16:01:00,,0809.0,5.00,0.00,22.1,21.6,00.0,31.0,23.8,07.9,0000.0,0006.38,0000.82,0000.19
2021-12-30 16:02:00,,0808.9,5.01,0.00,22.1,21.6,00.0,31.0,23.8,07.9,0000.0,0006.04,0000.78,0000.19
2021-12-30 16:03:00,,0808.8,4.98,0.00,22.1,21.6,00.0,31.0,23.8,07.9,0000.0,0007.49,0000.83,0000.20
2021-12-30 16:04:00,,0809.0,5.00,0.00,22.1,21.6,00.0,31.0,23.8,07.9,0000.0,0008.18,0000.87,0000.20
2021-12-30 16:05:00,,0809.2,5.01,0.00,22.1,21.6,00.0,31.0,23.8,07.9,0000.0,0008.60,0000.90,0000.20
2021-12-30 16:06:00,,0809.0,4.98,0.00,22.1,21.6,00.0,31.0,23.8,07.8,0000.0,0008.89,0000.92,0000.20
2021-12-30 16:07:00,,0809.3,5.01,0.00,22.1,21.6,00.0,31.0,23.8,07.8,0000.0,0009.50,0000.92,0000.20
2021-12-30 16:08:00,,0809.4,5.00,0.00,22.1,21.6,00.0,31.1,23.8,07.8,0000.0,0009.63,0000.94,0000.20
2021-12-30 16:09:00,,0809.1,5.01,0.00,22.2,21.6,00.0,31.1,23.8,07.8,0000.0,0010.10,0000.94,0000.20
2021-12-30 16:10:00,,0809.0,5.01,0.00,22.2,21.6,00.0,31.1,23.9,07.6,0000.0,0010.21,0000.91,0000.20
2021-12-30 16:11:00,,0809.1,4.99,0.00,22.2,21.6,00.0,31.1,23.8,07.6,0000.0,0009.36,0000.93,0000.19
2021-12-30 16:12:00,,0809.3,5.01,0.00,22.2,21.6,00.0,31.1,23.8,07.6,0000.0,0009.37,0001.02,0000.20
2021-12-30 16:13:00,,0809.2,5.00,0.00,22.2,21.6,00.0,31.1,23.8,07.6,0000.0,0009.13,0001.02,0000.20
2021-12-30 16:14:00,,0808.8,5.01,0.00,22.2,21.6,00.0,31.1,23.9,07.5,0000.0,0008.34,0000.95,0000.19
2021-12-30 16:15:00,,0808.9,4.98,0.00,22.2,21.6,00.0,31.1,23.9,07.5,0000.0,0007.77,0000.94,0000.19
2021-12-30 16:16:00,,0808.9,5.01,0.00,22.2,21.6,00.0,31.1,23.9,07.4,0000.0,0007.14,0000.94,0000.19
2021-12-30 16:17:00,,0809.1,5.01,0.00,22.2,21.6,00.0,31.1,23.9,07.5,0000.0,0007.76,0000.99,0000.20
2021-12-30 16:18:00,,0809.2,4.98,0.00,22.2,21.5,00.0,31.1,23.8,07.5,0000.0,0007.73,0001.03,0000.20
2021-12-30 16:19:00,,0809.3,5.00,0.00,22.2,21.6,00.0,31.1,23.8,07.5,0000.0,0008.15,0001.05,0000.20
2021-12-30 16:20:00,,0809.2,5.00,0.00,22.2,21.6,00.0,31.1,23.9,07.5,0000.0,0007.62,0001.05,0000.20
2021-12-30 16:21:00,,0809.2,5.00,0.00,22.2,21.6,00.0,31.1,23.9,07.6,0000.0,0007.49,0001.08,0000.21
2021-12-30 16:22:00,,0809.3,5.00,0.00,22.2,21.6,00.0,31.1,23.9,07.5,0000.0,0007.50,0001.03,0000.21
2021-12-30 16:23:00,,0809.3,5.00,0.00,22.2,21.6,00.0,31.1,23.9,07.5,0000.0,0007.77,0000.98,0000.21
2021-12-30 16:24:00,,0809.0,5.00,0.00,22.3,21.7,00.0,31.1,24.0,07.5,0000.0,0007.72,0000.96,0000.20
2021-12-30 16:25:00,,0809.0,5.01,0.00,22.3,21.7,00.0,31.2,24.0,07.5,0000.0,0007.52,0000.95,0000.21
2021-12-30 16:26:00,,0808.9,5.00,0.00,22.3,21.7,00.0,31.2,24.0,07.5,0000.0,0007.51,0000.95,0000.21
2021-12-30 16:27:00,,0809.2,5.00,0.00,22.3,21.7,00.0,31.2,24.0,07.4,0000.0,0007.56,0000.94,0000.20
2021-12-30 16:28:00,,0809.1,5.00,0.00,22.3,21.7,00.0,31.2,24.0,07.4,0000.0,0007.13,0000.94,0000.20
2021-12-30 16:29:00,,0809.0,5.01,0.00,22.3,21.7,00.0,31.2,24.0,07.4,0000.0,0006.93,0000.93,0000.19
2021-12-30 16:30:00,,0809.0,4.98,0.00,22.3,21.7,00.0,31.2,24.1,07.5,0000.0,0005.90,0000.90,0000.19
2021-12-30 16:31:00,,0809.1,5.00,0.00,22.4,21.7,00.0,31.2,24.1,07.4,0000.0,0006.52,0000.88,0000.18
2021-12-30 16:32:00,,0809.4,5.00,0.00,22.4,21.8,00.0,31.2,24.1,07.4,0000.0,0006.63,0000.85,0000.17
2021-12-30 16:33:00,,0809.5,5.02,0.00,22.4,21.8,00.0,31.2,24.1,07.4,0000.0,0007.44,0000.86,0000.17
2021-12-30 16:34:00,,0809.5,4.99,0.00,22.4,21.8,00.0,31.3,24.1,07.4,0000.0,0006.88,0000.84,0000.16
2021-12-30 16:35:00,,0809.3,5.01,0.00,22.4,21.8,00.0,31.3,24.1,07.5,0000.0,0006.97,0000.89,0000.16
2021-12-30 16:36:00,,0809.4,4.99,0.00,22.4,21.8,00.0,31.3,24.1,07.6,0000.0,0007.19,0000.89,0000.16
2021-12-30 16:37:00,,0809.4,5.02,0.00,22.4,21.8,00.0,31.3,24.1,07.6,0000.0,0007.35,0000.85,0000.16
2021-12-30 16:38:00,,0809.3,4.99,0.00,22.4,21.9,00.0,31.3,24.2,07.7,0000.0,0007.30,0000.81,0000.16
2021-12-30 16:39:00,,0809.1,5.01,0.00,22.5,21.9,00.0,31.3,24.2,07.7,0000.0,0007.35,0000.73,0000.16
2021-12-30 16:40:00,,0809.1,5.01,0.00,22.5,21.9,00.0,31.3,24.2,07.7,0000.0,0006.92,0000.72,0000.15
2021-12-30 16:41:00,,0809.1,4.99,0.00,22.5,21.9,00.0,31.3,24.3,07.6,0000.0,0007.47,0000.76,0000.16
2021-12-30 16:42:00,,0809.1,5.00,0.00,22.5,21.9,00.0,31.4,24.3,07.6,0000.0,0006.90,0000.78,0000.16
2021-12-30 16:43:00,,0809.1,5.01,0.00,22.5,21.9,00.0,31.4,24.3,07.5,0000.0,0006.52,0000.84,0000.16
2021-12-30 16:44:00,,0809.1,5.00,0.00,22.5,21.9,00.0,31.4,24.2,07.6,0000.0,0005.53,0000.82,0000.16
2021-12-30 16:45:00,,0809.1,4.99,0.00,22.5,21.9,00.0,31.4,24.3,07.5,0000.0,0006.41,0000.81,0000.16
2021-12-30 16:46:00,,0809.1,5.01,0.00,22.5,21.9,00.0,31.4,24.3,07.6,0000.0,0006.76,0000.80,0000.16
2021-12-30 16:47:00,,0809.3,4.99,0.00,22.5,21.9,00.0,31.4,24.2,07.6,0000.0,0006.60,0000.83,0000.17
2021-12-30 16:48:00,,0809.3,4.99,0.00,22.5,21.9,00.0,31.4,24.3,07.6,0000.0,0006.42,0000.82,0000.17
2021-12-30 16:49:00,,0809.3,5.01,0.00,22.6,22.2,00.0,31.4,24.3,07.6,0000.0,0006.18,0000.85,0000.16
2021-12-30 16:50:00,,0809.3,5.00,0.00,22.7,23.2,00.0,31.5,24.6,07.5,0000.0,0007.02,0000.86,0000.16
2021-12-30 16:51:00,,0809.3,5.00,0.00,22.8,23.8,00.0,31.6,24.9,07.4,0000.0,0007.86,0000.86,0000.16
2021-12-30 16:52:00,,0809.3,5.01,0.00,22.9,23.5,00.0,31.6,24.9,07.4,0000.0,0007.52,0000.84,0000.16
2021-12-30 16:53:00,,0809.1,4.99,0.00,22.9,23.3,00.0,31.6,24.8,07.4,0000.0,0007.49,0000.84,0000.16
2021-12-30 16:54:00,,0809.0,5.01,0.00,22.9,23.1,00.0,31.7,24.8,07.5,0000.0,0007.53,0000.81,0000.15
2021-12-30 16:55:00,,0809.1,4.99,0.00,22.9,22.9,00.0,31.7,24.7,07.5,0000.0,0007.91,0000.84,0000.15
2021-12-30 16:56:00,,0809.1,5.01,0.00,22.9,22.8,00.0,31.7,24.7,07.4,0000.0,0007.68,0000.86,0000.15
2021-12-30 16:57:00,,0809.1,5.00,0.00,22.9,22.7,00.0,31.7,24.6,07.4,0000.0,0007.37,0000.81,0000.15
2021-12-30 16:58:00,,0809.1,5.00,0.00,22.8,22.5,00.0,31.7,24.5,07.4,0000.0,0007.10,0000.78,0000.14
2021-12-30 16:59:00,,0809.0,5.01,0.00,22.8,22.5,00.0,31.7,24.5,07.5,0000.0,0007.12,0000.81,0000.15
